Aérodrome :
LOGIN :

S'inscrire | Disclaimer

   EN    FR    IT 

 










Légende :    VFR   VFR Marginal   IFR   IFR Intensif   IFR Très Intensif
Visi : 
Plafond : 
>= 8 km
>= 3000ft
5 à 8 km
1000 à 3000 ft
1500m à 5 km
500 à 1000 ft
800 à 1500m
200 à 500 ft
< 800m
< 200 ft
Symboles :   Orages  Brouillard  Fortes neiges  Fortes précipitations  Vent > 20 kt
SIGMETs :   Divers  Orages  Givrage  Turbulence  Onde Orograph.  Cendres Volcan.







- Altitude de l'aérodrome : 300 ft
- Code IATA : MLA


LMML - Malta Luqa

DERNIER METAR :
  • 232245Z 14004KT 9999 FEW022 25/21 Q1018 NOSIG

METARs EXPIRÉS :
  • 232215Z 15004KT 9999 FEW024 25/21 Q1018 NOSIG
  • 232145Z 18004KT 9999 FEW024 25/21 Q1018 NOSIG
  • 232115Z 15004KT 9999 FEW024 25/21 Q1018 NOSIG
  • 232045Z 15004KT 9999 FEW024 25/21 Q1018 NOSIG
  • 232015Z 15002KT 9999 FEW024 25/21 Q1018 NOSIG

TAF TAF LMML
Valide du 23 à 18h jusqu'au 24 à 18h UTC


231700Z 2318/2418 18005KT 9999 SCT025
PROB30
TEMPO 2408/2418 VRB15G25KT 8000 SHRA BKN020TCU
Pas de NOTAMs connus pour ce terrain.



MET'MAP, la Météo Aéronautique d'un coup d'oeil ! - Copyright ORBIFLY Décembre 2007 - Disclaimer

ORBIFLY MET'MAP TEAM :

Programmation & Développement : Alexandra Zaïnal
Conception & Développement : Baudouin d'Aumeries
Co-Programmation & Développement : Marc-Olivier Méhu
Soutien technique & logistique : Manuel Goepfert

Contact : metmap@orbifly.com




SOURCES & CREDITS :

   NOAA